Overview Statistics Trail Chart Weather Telemetry Raw packets
 

This is the latest recevied weather packets stored in our database for station/object IW5CTE-13. If no packets are shown the sender has not sent any weather packets the latest 10 day(s).

<< 1 2 3 4 5 6 7 >>
Time Temp. Humidity Pressure Rain* Wind** Luminosity Snow
1788526362 33.33° C 52% 1019 hPa - - - -
1788525744 33.89° C 51% 1019 hPa - - - -
1788525144 34.44° C 53% 1019 hPa - - - -
1788524545 34.44° C 53% 1019.1 hPa - - - -
1788523943 34.44° C 53% 1019.2 hPa - - - -
1788523344 34.44° C 50% 1019.2 hPa - - - -
1788522745 35° C 49% 1019.2 hPa - - - -
1788522144 36.11° C 48% 1019.2 hPa - - - -
1788521543 35.56° C 50% 1019.1 hPa - - - -
1788520944 35.56° C 48% 1019.3 hPa - - - -
1788520343 35.56° C 49% 1019.4 hPa - - - -
1788519744 36.11° C 50% 1019.4 hPa - - - -
1788519144 35.56° C 49% 1019.4 hPa - - - -
1788518543 36.11° C 47% 1019.3 hPa - - - -
1788517943 35.56° C 48% 1019.4 hPa - - - -
1788517343 36.11° C 48% 1019.4 hPa - - - -
1788516743 35.56° C 48% 1019.5 hPa - - - -
1788516144 35.56° C 49% 1019.6 hPa - - - -
1788515543 36.11° C 49% 1019.7 hPa - - - -
1788514944 35.56° C 49% 1019.6 hPa - - - -
1788514343 35.56° C 48% 1019.6 hPa - - - -
1788513743 35.56° C 46% 1019.6 hPa - - - -
1788513143 35.56° C 44% 1019.7 hPa - - - -
1788512544 35.56° C 43% 1019.7 hPa - - - -
1788511943 35° C 42% 1019.7 hPa - - - -

* Rain since midnight (hover to see other rain measurements)
** Current wind speed in m/s (hover to see current wind gust speed)